Regional Weather Roundup
Issued by NWS

Home | Current Version | Previous Version | Text Only | Print | Product List | Glossary On
Versions: 1 2 3 4 5 6 7 8 9 10 11 12 13 14 15 16 17 18 19 20 21 22 23 24 25 26 27 28 29 30 31 32 33 34 35 36 37 38 39 40 41 42 43 44 45 46 47 48 49 50
000
ASUS43 KMKX 060300
RWRWI

WISCONSIN REGIONAL WEATHER ROUNDUP
NATIONAL WEATHER SERVICE MILWAUKEE/SULLIVAN WI
1000 PM CDT THU MAY 05 2016

NOTE: "FAIR" INDICATES FEW OR NO CLOUDS BELOW 12,000 FEET WITH NO
SIGNIFICANT WEATHER AND/OR OBSTRUCTIONS TO VISIBILITY.

WIZ001-002-006>008-014>016-023>028-060400-
NORTHWEST WISCONSIN

CITY           SKY/WX    TMP DP  RH WIND       PRES   REMARKS
SUPERIOR ARPT  PTCLDY    69  41  36 SW8       29.78R
ASHLAND        PTCLDY    63  40  42 S9        29.82S
HAYWARD        CLEAR     60  39  45 S6        29.86S
SIREN          CLEAR     64  39  40 S6        29.86S
CUMBERLAND     CLEAR     55  37  50 S6        29.88S
RICE LAKE      CLEAR     61  39  43 S5        29.90S
CHETEK         CLEAR     56  41  57 E9        29.89S
LADYSMITH      PTCLDY    59  40  48 S5        29.91S
EAU CLAIRE     NOT AVBL
MENOMONIE      CLEAR     58  43  56 CALM      29.90R
NEW RICHMOND   CLEAR     62  38  41 S5        29.89R
OSCEOLA        CLEAR     63  40  42 S6        29.90R
$$

WIZ003>005-009-010-017-018-060400-
NORTH CENTRAL WISCONSIN

CITY           SKY/WX    TMP DP  RH WIND       PRES   REMARKS
MANITOWISH WTR CLEAR     56  39  53 S3        29.90R
ARBOR VITAE    CLEAR     59  40  48 S3        29.91R
WOODRUFF       CLEAR     59  40  48 S3        29.91R
RHINELANDER    PTCLDY    57  38  48 SW5       29.93R
EAGLE RIVER    CLEAR     51  37  57 SW5       29.91R
LAND O LAKES   CLEAR     58  37  44 S3        29.91S
PHILLIPS       PTCLDY    56  40  55 S6        29.89S
TOMAHAWK       CLOUDY    54  38  55 CALM      29.92S
MEDFORD        PTCLDY    55  40  58 S6        29.92S
MERRILL        MOCLDY    58  42  54 W5        29.93S
$$

WIZ029-030-035-036-043>047-060400-
CENTRAL WISCONSIN

CITY           SKY/WX    TMP DP  RH WIND       PRES   REMARKS
WAUSAU         MOCLDY    59  46  62 E5        29.92R
MOSINEE        MOCLDY    55  41  58 CALM      29.95R
MARSHFIELD     PTCLDY    57  38  48 SW7       29.92F
STEVENS POINT  PTCLDY    51  36  56 CALM      29.95R
WAUPACA        CLEAR     55  33  43 CALM      29.94R
WAUTOMA        NOT AVBL
WISC RAPIDS    MOCLDY    57  38  48 SW6       29.95S
CAMP DOUGLAS     N/A     51  44  75 E3        29.95R
$$

WIZ011>013-019>022-031-037>040-048>050-060400-
NORTHEAST WISCONSIN

CITY           SKY/WX    TMP DP  RH WIND       PRES   REMARKS
ANTIGO         CLOUDY    51  38  60 CALM      29.94R
SHAWANO        CLEAR     61  33  35 SW3       29.93R
OCONTO         CLEAR     51  46  82 S6        29.92R
STURGEON BAY   CLEAR     46  36  66 S8        29.96S
GREEN BAY      PTCLDY    53  41  63 S3        29.93R
MANITOWOC      NOT AVBL
APPLETON       PTCLDY    52  36  54 VRB3      29.92S
CLINTONVILLE   CLEAR     54  36  50 CALM      29.93R
OSHKOSH        CLEAR     51  38  60 S7        29.94R
$$

WIZ032>034-041-042-053>061-060400-
SOUTHWEST WISCONSIN

CITY           SKY/WX    TMP DP  RH WIND       PRES   REMARKS
LA CROSSE      MOCLDY    60  42  51 SE6       29.93S
SPARTA         CLOUDY    55  43  65 E3        29.95S
VIROQUA        MOCLDY    59  38  45 S5        29.96R
BOSCOBEL       CLEAR     53  41  63 CALM      29.97R
PRAIRIE DU CHI CLEAR     56  40  54 CALM      29.96S
PLATTEVILLE    CLEAR     58  35  42 SW3       29.98S
$$

WIZ056-057-062-063-064-067-068-060400-
SOUTH CENTRAL WISCONSIN

CITY           SKY/WX    TMP DP  RH WIND       PRES   REMARKS
REEDSBURG      CLEAR     53  37  53 CALM      29.96R
BARABOO/DELLS  CLEAR     50  37  59 CALM      29.96S
LONE ROCK      NOT AVBL
MINERAL POINT  CLEAR     55  30  38 CALM      29.98R
MADISON        CLEAR     49  35  58 CALM      29.96R
MIDDLETON      CLEAR     49  40  71 CALM      29.97R
WATERTOWN      CLEAR     47  41  77 CALM      29.96R
MONROE         CLEAR     57  36  44 SW8       29.97R
JANESVILLE     NOT AVBL
$$

WIZ051-052-058>065-066-070>072-060400-
SOUTHEAST WISCONSIN

CITY           SKY/WX    TMP DP  RH WIND       PRES   REMARKS
MILWAUKEE      PTCLDY    49  36  61 S3        29.98R
WAUKESHA       CLEAR     45  37  76 SE3       29.98R
MILWAUKEE/TIMM CLEAR     50  36  57 CALM      29.98
RACINE         CLEAR     45  36  70 SW3       30.00R
BURLINGTON     CLEAR     48  40  72 CALM      29.98R
KENOSHA        CLEAR     45  37  73 S3        29.99R
FOND DU LAC    CLEAR     49  40  71 S6        29.95R
SHEBOYGAN      CLEAR     44  37  76 S5        29.96S
WEST BEND      CLEAR     45  37  76 SW6       29.97S
JUNEAU         CLEAR     53  37  55 SW3       29.96S
$$

LSZ147-162-060400-
LAKE SUPERIOR

STATION/POSITION TIME  TEMP    WIND        PRES    WAVE
                       AIR SEA DIR/SP/G            HT/PER
                 (UTC) (F)     (DEG/KT/KT) (MB)    (FT/S)
W MID LAKE BUOY  0150   42 37  110/ 10/ 10 1010.0R   0
DEVILS ISLAND    0200   69     190/ 12/ 17 1008.1F
SAXON HARBOR     0200   67     200/  6/ 10 1009.5S
$$

LMZ867-665-643>646-060400-
LAKE MICHIGAN

STATION/POSITION TIME  TEMP    WIND        PRES    WAVE
                       AIR SEA DIR/SP/G            HT/PER
                 (UTC) (F)     (DEG/KT/KT) (MB)    (FT/S)
CHAMBERS ISLAND  0240   48     140/  3/  6 1013.5R
N MID LAKE BUOY  0150   40 39  200/  6/  8 1013.8R   0
NORTHPORT PIER   0200   47     190/  4/  8 1013.5R
ALGOMA LAKESHORE 0215          200/ 11/ 12   N/A
KEWAUNEE LAKESHO 0200                      1013.3F
SHEBOYGAN LAKESH 0200   47     210/  5/  5 1015.2R
PORT WASHINGTON  0240   48     250/  2/  4 1015.6R
S MID LAKE BUOY  0150   43 40  300/  4/  4 1014.8R   2/ 5
KENOSHA   LAKESH 0200   48     190/  3/  3 1014.9S
$$

TC  - TEMPERATURE IN CELSIUS
VSB - VISIBILITY IN STATUTE MILES
WCI - WIND CHILL INDEX
HX  - HEAT INDEX





USA.gov is the U.S. government's official web portal to all federal, state and local government web resources and services.